Location: Campo Alegre
(10.1673°N, 67.4431°W)
Time: 14:04:22
(UTC+00:00)

CZ-3 R/B - Pass Details

Date: 14 April 2024
Orbit: 492 x 10075 km, 28.3° (Epoch: 27 May)

Event Time Altitude Azimuth Distance (km) Brightness Sun altitude
Rises 06:31:30 0° 240° (WSW) 15,110 7.2 -53.9°
Enters shadow 06:41:13 - 240° (WSW) 14,242 7.0 -51.8°
Exits shadow 07:33:51 57° 252° (WSW) 5,257 4.7 -40.2°
Maximum altitude 07:42:19 82° 329° (NNW) 3,487 4.0 -38.2°
Drops below altitude 10° 07:53:57 10° 58° (ENE) 3,953 5.4 -35.5°
Sets 07:55:57 0° 59° (ENE) 4,493 5.9 -35.1°
